Location: Dattensoll
(49.9928°N, 9.8954°E)
Time: 00:00:34
(UTC+00:00)

Cosmos 1743 Rocket - Pass Details

Date: 19 May 2025
Orbit: 599 x 626 km, 82.6° (Epoch: 15 June)

Event Time Altitude Azimuth Distance (km) Brightness Sun altitude
Rises 23:20:13 0° 345° (NNW) 2,923 8.4 -20.0°
Reaches altitude 10° 23:22:30 10° 341° (NNW) 2,009 7.2 -20.0°
Maximum altitude 23:26:48 50° 266° (W) 797 4.0 -20.0°
Enters shadow 23:27:48 41° 225° (SW) 904 4.0 -20.0°
